Location: Benalto
(52.3088°N, 114.2787°W)
Time: 11:20:20
(UTC+00:00)

N. Korean satellite - Pass Details

Date: 03 December 2021
Orbit: 447 x 491 km, 97.3° (Epoch: 21 January)

Event Time Altitude Azimuth Distance (km) Brightness Sun altitude
Rises 00:14:41 0° 179° (S) 2,534 10.6 -7.0°
Reaches altitude 10° 00:16:49 10° 186° (S) 1,652 9.7 -7.3°
Maximum altitude 00:20:14 46° 261° (W) 651 7.8 -7.8°
Drops below altitude 10° 00:23:39 10° 336° (NNW) 1,639 9.2 -8.3°
Sets 00:25:45 0° 342° (NNW) 2,512 10.1 -8.5°
